Waarnemingen

Advertentie
Mijn weer
Leuchars, Groot Brittannië (3171): temperatuur & dauwpunt: 14.11.2018 11:00:00 - 20.11.2018 11:00:00 (GMT)Leuchars, Groot Brittannië (3171): temperatuur -20cm & temperatuur -100cm: 14.11.2018 11:00:00 - 20.11.2018 11:00:00 (GMT)Leuchars, Groot Brittannië (3171): windsnelheid & windstoten: 14.11.2018 11:00:00 - 20.11.2018 11:00:00 (GMT)Leuchars, Groot Brittannië (3171): windrichting: 14.11.2018 11:00:00 - 20.11.2018 11:00:00 (GMT)Leuchars, Groot Brittannië (3171): luchtdruk: 14.11.2018 11:00:00 - 20.11.2018 11:00:00 (GMT)Leuchars, Groot Brittannië (3171): zicht: 14.11.2018 11:00:00 - 20.11.2018 11:00:00 (GMT)Leuchars, Groot Brittannië (3171): Zonneschijnduur: 14.11.2018 11:00:00 - 20.11.2018 11:00:00 (GMT)Leuchars, Groot Brittannië (3171): neerslag: 14.11.2018 11:00:00 - 20.11.2018 11:00:00 (GMT)
Datum & Tijd tt [°C] td [°C] tt -20cm [°C] tt -100cm [°C] ff [km/u] ff [kn] fx [km/u] fx [kn] dd ppp [hPa] vv [km] sd [min] rr [mm]
20.11.2018 11:00:00 7,2 4,3 - - 35 19 57 31 O 1023,9 12 24 0,4
20.11.2018 10:00:00 7,7 2,3 - - 37 20 52 28 O 1024,4 26 6 0,0
20.11.2018 09:00:00 7,8 1,8 8,4 9,7 37 20 52 28 O 1024,8 40 0 0,0
20.11.2018 08:00:00 7,3 2,6 - - 34 18 50 27 O 1025,2 29 0 0,0
20.11.2018 07:00:00 6,9 3,7 - - 29 16 52 28 O 1025,6 25 0 0,4
20.11.2018 06:00:00 7,4 3,1 - - 29 16 46 25 O 1025,7 25 0 0,0
20.11.2018 05:00:00 7,1 3,4 - - 28 15 48 26 O 1026,1 10 0 0,0
20.11.2018 04:00:00 7,3 4,1 - - 29 16 50 27 O 1026,3 20 0 0,0
20.11.2018 03:00:00 7,4 3,2 - - 35 19 46 25 O 1026,7 10 0 0,0
20.11.2018 02:00:00 6,8 3,5 - - 28 15 46 25 O 1027,2 30 0 0,2
20.11.2018 01:00:00 6,7 3,6 - - 29 16 54 29 O 1027,8 24 0 0,2
20.11.2018 00:00:00 6,2 3,6 - - 29 16 52 28 O 1028,5 10 - 0,0
19.11.2018 23:00:00 7,1 2,5 - - 34 18 46 25 O 1028,7 10 0 0,0
19.11.2018 22:00:00 6,6 3,8 - - 31 17 48 26 O 1029,1 10 0 0,4
19.11.2018 21:00:00 7,5 3,5 - - 34 18 50 27 OZO 1029,1 10 0 0,2
19.11.2018 20:00:00 7,2 4,1 - - 22 12 - - O 1029,3 14 0 0,2
19.11.2018 19:00:00 6,9 4,1 - - 34 18 - - O 1029,5 10 0 0,0
19.11.2018 18:00:00 7,6 2,0 - - 29 16 46 25 O 1029,4 10 0 0,0
19.11.2018 17:00:00 8,0 3,1 - - 26 14 - - OZO 1029,6 10 0 0,0
19.11.2018 16:00:00 8,4 2,6 - - 34 18 - - O 1029,7 10 0 0,0
19.11.2018 15:00:00 8,5 2,9 - - 34 18 - - OZO 1029,9 10 0 0,0
19.11.2018 14:00:00 8,9 2,3 - - 29 16 - - OZO 1030,2 10 0 0,0
19.11.2018 13:00:00 8,7 2,9 - - 22 12 - - O 1030,8 10 0 0,0
19.11.2018 12:00:00 8,7 3,3 - - 21 11 - - O 1031,2 23 0 0,0
19.11.2018 11:00:00 8,8 3,1 - - 21 11 - - OZO 1031,5 30 0 0,0
19.11.2018 10:00:00 8,5 3,7 - - 11 6 - - OZO 1031,7 10 0 0,0
19.11.2018 09:00:00 8,6 3,7 8,7 9,7 24 13 - - OZO 1031,9 10 0 0,0
19.11.2018 08:00:00 8,8 5,3 - - 22 12 - - OZO 1031,7 10 0 0,0
19.11.2018 07:00:00 8,6 6,9 - - 18 10 - - O 1031,5 15 0 0,0
19.11.2018 06:00:00 8,0 7,9 - - 18 10 - - OZO 1031,7 2,9 0 0,6
19.11.2018 05:00:00 8,0 7,3 - - 13 7 - - ONO 1031,9 6 0 0,0
19.11.2018 04:00:00 8,5 6,0 - - 13 7 - - O 1032,2 10 0 0,0
19.11.2018 03:00:00 8,8 5,1 - - 13 7 - - O 1032,7 10 0 0,0
19.11.2018 02:00:00 8,9 3,8 - - 22 12 - - O 1033,4 10 0 0,0
19.11.2018 01:00:00 9,2 5,2 - - 21 11 - - O 1033,5 20 0 0,0
19.11.2018 00:00:00 9,0 5,2 - - 16 9 - - O 1033,8 10 - 0,0
18.11.2018 23:00:00 8,2 5,3 - - 9 5 - - ONO 1034,0 10 0 0,0
18.11.2018 22:00:00 8,9 5,6 - - 11 6 - - O 1034,3 22 0 0,0
18.11.2018 21:00:00 8,8 5,4 - - 11 6 - - O 1034,3 10 0 0,0
18.11.2018 20:00:00 8,9 5,7 - - 11 6 - - O 1034,7 20 0 0,0
18.11.2018 19:00:00 7,5 5,4 - - 9 5 - - O 1034,9 16 0 0,0
18.11.2018 18:00:00 8,7 5,3 - - 11 6 - - O 1034,8 19 0 0,0
18.11.2018 17:00:00 9,1 5,9 - - 11 6 - - O 1034,7 16 0 0,0
18.11.2018 16:00:00 9,2 5,7 - - 16 9 - - O 1034,7 17 0 0,0
18.11.2018 15:00:00 9,3 6,7 - - 15 8 - - O 1034,7 10 0 0,0
18.11.2018 14:00:00 9,6 6,5 - - 13 7 - - OZO 1034,8 10 0 0,0
18.11.2018 13:00:00 9,9 6,4 - - 18 10 - - O 1034,7 18 18 0,0
18.11.2018 12:00:00 10,2 7,3 - - 18 10 - - O 1035,2 10 18 0,0
18.11.2018 11:00:00 9,8 7,5 - - 18 10 - - OZO 1035,4 10 6 0,0
18.11.2018 10:00:00 9,6 7,1 - - 16 9 - - O 1035,1 15 0 0,0
18.11.2018 09:00:00 8,8 7,1 8,7 9,7 15 8 - - OZO 1035,1 12 0 0,0
18.11.2018 08:00:00 8,1 6,6 - - 13 7 - - OZO 1035,0 9 0 0,0
18.11.2018 07:00:00 8,4 6,7 - - 15 8 - - OZO 1034,8 10 0 0,0
18.11.2018 06:00:00 8,4 6,8 - - 15 8 - - O 1034,6 10 0 0,0
18.11.2018 05:00:00 8,5 7,0 - - 9 5 - - O 1034,4 10 0 0,0
18.11.2018 04:00:00 8,9 6,9 - - 11 6 - - ZO 1034,0 13 0 0,0
18.11.2018 03:00:00 9,0 6,7 - - 11 6 - - ZO 1033,5 16 0 0,0
18.11.2018 02:00:00 9,2 6,8 - - 11 6 - - OZO 1033,5 13 0 0,0
18.11.2018 01:00:00 9,3 6,4 - - 18 10 - - OZO 1033,5 15 0 0,0
18.11.2018 00:00:00 9,2 6,7 - - 18 10 - - ZO 1033,6 10 - 0,0
17.11.2018 23:00:00 9,3 6,9 - - 21 11 - - OZO 1033,5 13 0 0,0
17.11.2018 22:00:00 9,5 7,1 - - 21 11 - - OZO 1033,4 10 0 0,0
17.11.2018 21:00:00 9,4 6,9 - - 21 11 - - OZO 1033,4 12 0 0,0
17.11.2018 20:00:00 9,4 7,1 - - 18 10 - - OZO 1033,0 9 0 0,0
17.11.2018 19:00:00 9,4 6,9 - - 21 11 - - OZO 1032,9 13 0 0,0
17.11.2018 18:00:00 9,3 7,0 - - 16 9 - - OZO 1032,2 10 0 0,0
17.11.2018 17:00:00 9,3 7,0 - - 15 8 - - OZO 1032,2 7 0 0,0
17.11.2018 16:00:00 9,4 6,5 - - 21 11 - - OZO 1032,0 8 0 0,0
17.11.2018 15:00:00 9,2 6,6 - - 21 11 - - OZO 1031,9 8 0 0,0
17.11.2018 14:00:00 9,0 6,0 - - 26 14 - - OZO 1031,9 15 0 0,0
17.11.2018 13:00:00 9,1 6,2 - - 21 11 - - ZO 1031,6 18 0 0,0
17.11.2018 12:00:00 8,9 6,4 - - 22 12 - - OZO 1031,5 19 0 0,0
17.11.2018 11:00:00 9,1 6,3 - - 24 13 - - OZO 1031,5 17 0 0,0
17.11.2018 10:00:00 8,9 6,1 - - 22 12 - - ZO 1031,3 10 0 0,0
17.11.2018 09:00:00 8,7 5,7 8,7 9,7 26 14 - - ZO 1030,9 10 0 0,0
17.11.2018 08:00:00 8,6 5,5 - - 21 11 - - OZO 1030,5 17 0 0,0
17.11.2018 07:00:00 8,6 5,4 - - 24 13 - - OZO 1030,0 10 0 0,0
17.11.2018 06:00:00 9,0 6,1 - - 22 12 - - OZO 1029,5 10 0 0,0
17.11.2018 05:00:00 9,2 6,4 - - 21 11 - - OZO 1029,5 13 0 0,0
17.11.2018 04:00:00 9,1 6,5 - - 21 11 - - O 1029,6 10 0 0,0
17.11.2018 03:00:00 9,0 6,9 - - 24 13 - - OZO 1029,6 10 0 0,0
17.11.2018 02:00:00 9,4 7,7 - - 22 12 - - OZO 1029,5 17 0 0,0
17.11.2018 01:00:00 9,8 9,8 - - 24 13 - - OZO 1029,0 8 0 0,0
17.11.2018 00:00:00 10,2 10,1 - - 24 13 - - OZO 1028,5 8 - 0,0
16.11.2018 23:00:00 10,3 10,3 - - 22 12 - - OZO 1028,2 6 0 0,0
16.11.2018 22:00:00 10,2 10,2 - - 18 10 - - OZO 1027,7 3,5 0 0,0
16.11.2018 21:00:00 10,1 10,1 - - 15 8 - - OZO 1027,2 3,3 0 0,0
16.11.2018 20:00:00 9,9 9,9 - - 9 5 - - OZO 1027,0 1,8 0 0,0
16.11.2018 19:00:00 7,7 7,7 - - 8 4 - - NNO 1026,8 6 0 0,0
16.11.2018 18:00:00 9,5 9,5 - - 5 3 - - ONO 1026,2 1,9 0 0,0
16.11.2018 17:00:00 8,9 8,9 - - 9 5 - - ONO 1025,7 0,2 0 0,0
16.11.2018 16:00:00 9,9 9,4 - - 11 6 - - O 1025,1 2,4 12 0,0
16.11.2018 15:00:00 10,9 9,9 - - 16 9 - - OZO 1024,6 6 60 0,0
16.11.2018 14:00:00 12,7 10,5 - - 9 5 - - O 1024,5 9 60 0,0
16.11.2018 13:00:00 12,5 10,7 - - 5 3 - - ONO 1024,3 16 54 0,0
16.11.2018 12:00:00 13,9 11,1 - - 4 2 - - ZZO 1024,3 12 30 0,0
16.11.2018 11:00:00 9,8 9,6 - - 4 2 - - N 1024,2 10 0 0,0
16.11.2018 10:00:00 8,9 8,8 - - 0 0 - - N 1024,2 35 0 0,0
16.11.2018 09:00:00 7,9 7,9 8,7 9,7 0 0 - - N 1023,7 40 0 0,0
16.11.2018 08:00:00 7,6 7,6 - - 2 1 - - OZO 1022,9 40 0 0,0
16.11.2018 07:00:00 6,5 6,5 - - 4 2 - - N 1022,1 45 0 0,0
16.11.2018 06:00:00 5,2 5,2 - - 4 2 - - N 1021,5 10 0 0,0
16.11.2018 05:00:00 4,5 4,3 - - 2 1 - - NW 1020,8 10 0 0,0
16.11.2018 04:00:00 6,4 5,9 - - 2 1 - - W 1020,1 10 0 0,0
16.11.2018 03:00:00 7,7 6,8 - - 4 2 - - ZW 1019,7 50 0 0,0
16.11.2018 02:00:00 9,2 7,8 - - 4 2 - - WNW 1019,6 10 0 0,0
16.11.2018 01:00:00 9,1 7,5 - - 11 6 - - WZW 1018,7 45 0 0,0
16.11.2018 00:00:00 10,2 8,4 - - 8 4 - - W 1018,0 10 - 0,0
15.11.2018 23:00:00 10,4 8,7 - - 16 9 - - WZW 1016,7 45 0 0,0
15.11.2018 22:00:00 10,9 8,5 - - 28 15 - - WZW 1016,4 10 0 0,0
15.11.2018 21:00:00 11,3 8,3 - - 24 13 50 27 WZW 1015,9 50 0 0,0
15.11.2018 20:00:00 13,2 9,5 - - 24 13 - - ZW 1014,5 10 0 0,0
15.11.2018 19:00:00 12,5 8,8 - - 18 10 - - ZZW 1013,8 10 0 0,0
15.11.2018 18:00:00 12,3 8,2 - - 18 10 - - ZZW 1013,3 10 0 0,0
15.11.2018 17:00:00 12,3 7,9 - - 9 5 - - Z 1013,0 10 0 0,0
15.11.2018 16:00:00 11,0 6,6 - - 5 3 - - WZW 1013,2 50 0 0,0
15.11.2018 15:00:00 11,5 6,6 - - 16 9 - - ZZW 1013,1 50 0 0,0
15.11.2018 14:00:00 12,3 6,7 - - 13 7 - - ZZO 1012,7 45 48 0,0
15.11.2018 13:00:00 14,0 5,7 - - 9 5 - - Z 1013,1 29 60 0,0
15.11.2018 12:00:00 13,7 7,3 - - 13 7 - - Z 1013,3 40 60 0,0
15.11.2018 11:00:00 13,1 8,6 - - 5 3 - - OZO 1013,9 40 60 0,0
15.11.2018 10:00:00 11,7 8,5 - - 11 6 - - ZZO 1014,4 40 60 0,0
15.11.2018 09:00:00 10,9 8,7 8,7 9,5 11 6 - - Z 1014,5 40 12 0,0
15.11.2018 08:00:00 10,6 9,1 - - 15 8 - - ZO 1014,1 10 0 0,0
15.11.2018 07:00:00 10,7 8,9 - - 15 8 - - Z 1013,6 35 0 0,0
15.11.2018 06:00:00 11,8 9,3 - - 22 12 - - ZW 1013,4 10 0 0,0
15.11.2018 05:00:00 12,1 9,4 - - 18 10 - - WZW 1013,2 45 0 0,0
15.11.2018 04:00:00 12,3 9,7 - - 31 17 - - WZW 1013,2 10 0 0,0
15.11.2018 03:00:00 12,3 9,8 - - 29 16 - - ZW 1012,8 10 0 0,0
15.11.2018 02:00:00 12,7 9,7 - - 29 16 - - WZW 1012,9 27 0 0,0
15.11.2018 01:00:00 12,2 9,9 - - 9 5 - - ZZW 1013,1 10 0 0,0
15.11.2018 00:00:00 12,4 9,6 - - 22 12 48 26 ZZW 1012,5 10 - 0,0
14.11.2018 23:00:00 12,6 9,7 - - 29 16 - - ZW 1012,4 10 0 0,0
14.11.2018 22:00:00 12,8 10,1 - - 29 16 48 26 WZW 1012,1 29 0 0,0
14.11.2018 21:00:00 13,0 10,2 - - 31 17 46 25 WZW 1011,8 35 0 0,0
14.11.2018 20:00:00 13,1 10,3 - - 37 20 54 29 WZW 1010,9 35 0 0,0
14.11.2018 19:00:00 13,0 10,6 - - 39 21 61 33 ZW 1010,3 40 0 0,0
14.11.2018 18:00:00 13,2 11,1 - - 48 26 65 35 ZW 1009,7 27 0 0,0
14.11.2018 17:00:00 13,4 11,5 - - 31 17 50 27 ZW 1010,0 10 0 0,0
14.11.2018 16:00:00 13,6 11,8 - - 39 21 48 26 ZW 1009,8 30 0 0,2
14.11.2018 15:00:00 13,3 12,4 - - 29 16 48 26 ZW 1009,7 6 0 0,0
14.11.2018 14:00:00 13,8 12,4 - - 31 17 46 25 ZW 1008,9 30 0 0,0
14.11.2018 13:00:00 13,8 12,7 - - 26 14 - - ZW 1008,8 10 0 0,4
14.11.2018 12:00:00 13,5 12,8 - - 21 11 - - ZW 1008,1 9 0 0,2
14.11.2018 11:00:00 13,4 12,6 - - 28 15 - - ZW 1007,9 21 0 0,0

tt = temperatuur
td = dauwpunt
tt -20cm = temperatuur -20cm
tt -100cm = temperatuur -100cm
ff = windsnelheid
fx = windstoten
dd = windrichting
ppp = luchtdruk
vv = zicht
sd = Zonneschijnduur
rr = neerslag

Weerstations in de omgeving